Theta_e
325 325 324 323 324 324 323 323 323 323 324 322 322 321 320 320 319 319 319 319 319 318 319 318 317 318 318 318 318 318 318 320 318 320 320 320 321 319 321 323 326 327 328 327 327 326 325 324 322 323 321 321 321 319 319 319 318 318 318 317 317 317 317 315 315 315 314 315 315 315 314 314 314 314 314 313 312 312 311 312 312 312 311 312 311
325 325 325 323 323 324 323 322 322 322 322 322 320 320 320 319 318 319 320 320 318 320 318 318 317 317 317 317 317 318 318 317 318 318 318 318 321 319 318 321 324 328 327 327 328 328 327 326 324 324 324 322 321 320 319 319 319 318 318 318 318 317 317 316 315 315 315 315 315 315 314 314 313 313 313 313 313 312 313 312 311 311 310 310 311
326 325 324 324 323 325 323 322 322 322 322 322 320 321 320 319 320 318 318 317 317 318 317 316 316 318 316 316 316 316 317 316 317 318 318 317 317 319 318 318 321 325 327 328 327 327 327 327 327 326 325 324 323 323 321 321 320 320 319 319 318 318 318 317 316 315 315 315 315 314 315 315 314 313 313 313 313 312 312 312 311 311 311 309 309
326 326 324 324 323 323 323 322 322 321 321 321 320 320 318 318 319 319 318 317 318 318 317 316 315 317 316 317 316 316 316 316 315 316 316 316 317 317 317 316 317 320 322 327 328 327 327 328 328 327 327 325 324 323 322 321 321 321 320 319 319 319 319 318 317 316 316 315 315 315 315 314 314 313 313 313 312 312 312 312 311 311 311 311 311
326 326 324 323 323 323 323 322 323 322 321 320 319 318 318 317 317 318 318 316 316 315 316 316 315 315 316 317 317 316 316 315 317 317 316 316 318 316 316 316 315 315 317 320 326 328 327 328 328 327 327 327 327 327 325 323 323 322 321 321 320 320 320 319 318 317 317 317 316 315 315 315 314 314 313 313 313 312 312 312 311 311 311 310 309
327 325 325 324 322 323 322 322 321 320 320 320 320 319 317 316 315 315 316 314 315 315 314 313 315 314 314 314 316 316 315 317 315 316 314 315 316 317 317 315 316 316 315 316 319 323 328 328 327 326 327 327 327 327 327 325 324 324 323 322 322 322 322 321 320 319 318 317 317 317 316 316 315 314 314 313 313 313 313 312 312 312 311 310 310
329 326 327 325 323 322 322 322 323 321 320 319 319 319 318 317 316 316 314 314 314 315 315 315 314 315 315 315 316 316 314 316 316 315 315 315 315 315 317 318 316 316 316 315 311 315 321 327 327 326 327 327 327 327 328 328 326 326 325 325 324 323 323 322 321 321 320 319 318 318 317 316 316 315 314 313 314 313 313 312 312 312 311 310 310
330 328 326 323 322 322 322 323 323 323 321 318 319 318 317 317 316 316 313 313 314 314 314 313 314 314 314 314 314 314 314 314 314 315 315 316 315 314 315 316 317 316 315 315 315 313 314 319 325 327 327 328 327 327 328 328 327 327 326 327 326 325 324 323 323 321 322 320 318 318 317 317 316 315 315 315 314 313 313 313 312 312 311 311 311
331 330 328 326 324 323 322 323 324 322 321 318 317 318 317 317 316 315 314 312 312 311 312 313 313 314 313 312 313 313 313 313 313 314 315 314 313 313 314 315 315 312 315 316 315 315 313 314 319 322 322 327 327 327 327 328 328 327 327 327 327 326 325 324 323 322 322 320 320 318 318 318 317 316 316 315 315 314 314 314 313 313 312 311 310
331 330 328 328 327 325 324 325 324 323 321 319 318 318 317 317 315 314 315 313 311 311 311 312 313 313 312 312 311 310 310 310 311 309 310 310 312 312 313 313 313 315 315 314 314 314 314 314 314 315 315 319 326 328 328 328 328 328 328 328 327 326 325 324 324 323 322 321 320 319 319 318 318 318 317 316 316 315 315 314 314 313 313 312 311
330 329 328 327 327 326 326 325 325 323 322 320 318 316 316 316 315 314 314 314 312 311 312 312 312 311 309 309 309 310 309 307 306 306 307 309 309 310 312 312 313 312 312 313 313 313 313 314 313 313 314 315 322 326 328 328 326 327 328 327 328 327 326 325 324 323 322 322 321 320 320 319 318 318 317 317 316 316 315 314 315 313 314 313 312
330 329 328 327 326 326 325 324 324 325 323 320 317 317 315 315 316 316 314 313 313 313 311 308 306 307 307 307 306 306 306 306 306 307 306 306 307 307 308 310 310 311 311 311 312 312 312 313 312 312 313 314 316 318 322 324 324 326 327 328 328 328 327 326 325 325 323 323 322 321 321 320 320 319 318 318 317 316 316 316 315 315 314 314 313
329 329 328 327 327 324 324 321 321 322 323 322 320 319 318 318 317 316 315 312 311 310 306 307 307 306 305 306 307 307 306 306 306 306 306 307 306 306 307 306 307 308 310 310 310 310 310 311 311 311 311 311 313 313 315 317 319 325 326 327 328 329 328 327 326 325 325 323 323 323 321 321 321 320 320 319 318 318 316 316 317 316 315 315 314
328 330 330 330 328 324 324 324 323 323 322 321 321 318 319 318 316 314 313 313 312 311 309 309 306 306 306 307 307 307 307 306 306 306 306 306 306 305 306 306 306 307 308 308 309 309 310 310 310 310 310 311 312 313 314 314 315 321 326 326 328 329 329 328 327 327 326 325 324 323 323 322 322 321 320 320 319 318 317 318 317 317 316 316 315
329 329 330 330 328 327 326 326 326 323 321 321 321 320 318 316 314 314 311 310 311 311 309 311 308 307 307 304 304 304 306 304 305 306 306 306 305 305 305 305 306 307 307 307 307 308 308 309 309 309 310 310 310 311 311 309 311 312 318 322 324 328 329 329 329 327 326 326 325 324 323 323 323 322 321 321 320 319 319 319 318 318 317 316 316
330 329 329 328 327 327 328 327 326 325 323 320 320 320 319 316 313 311 311 308 306 307 309 309 310 307 304 303 302 301 302 303 303 305 306 306 305 305 305 305 305 306 305 306 307 307 307 307 308 308 309 309 309 309 309 310 309 308 307 310 314 321 325 327 329 329 328 326 326 326 323 323 323 323 322 322 321 320 319 319 318 318 317 317 317
331 330 327 328 328 329 328 327 324 323 322 322 320 319 318 319 317 314 312 311 309 308 308 309 308 309 309 304 302 300 300 303 303 305 306 304 304 304 304 304 304 305 304 305 305 306 306 306 306 307 307 307 307 308 308 308 308 307 307 302 304 311 319 325 327 328 329 329 328 326 326 324 323 323 322 322 322 321 321 320 319 318 318 318 317
327 329 328 326 328 328 326 324 322 321 321 321 322 321 320 319 318 316 314 313 313 313 311 307 309 308 309 312 312 309 305 303 306 304 308 306 305 305 305 304 304 304 304 303 303 304 304 305 306 306 306 305 306 306 306 307 306 307 307 308 310 311 312 317 323 326 328 328 328 328 328 327 325 323 322 322 322 321 321 321 320 319 319 318 318
323 324 325 325 326 326 326 327 326 324 321 322 320 319 320 320 318 316 316 315 313 311 312 310 306 307 308 308 309 309 310 306 304 305 303 305 305 302 304 304 304 304 303 303 303 303 304 304 304 305 305 305 305 305 305 305 306 306 309 311 315 315 315 315 316 320 325 326 326 327 328 328 326 326 325 323 322 322 321 321 320 320 319 318 319
325 325 326 328 327 326 327 327 326 326 322 321 321 320 320 320 318 317 316 315 313 312 311 312 306 305 305 305 305 306 307 307 307 305 303 300 303 307 307 307 305 305 304 304 304 303 303 303 303 303 304 304 304 304 304 304 304 305 306 310 314 315 316 316 316 315 317 320 324 325 327 328 327 328 327 323 324 323 322 321 320 320 319 319 319
321 322 322 323 322 324 326 327 326 326 324 323 321 321 320 320 319 317 315 314 313 312 312 311 311 311 304 303 305 305 305 306 306 305 302 301 302 303 305 306 306 306 305 305 305 305 304 304 304 304 303 303 303 303 303 303 303 303 305 308 312 315 317 317 316 314 315 315 318 321 324 327 326 327 328 326 326 325 322 323 321 320 320 319 319
318 318 318 320 321 321 323 325 325 324 321 323 322 321 320 320 320 318 316 314 314 313 312 313 313 314 311 307 303 303 303 303 302 303 302 303 301 302 304 303 302 306 307 306 305 305 305 305 304 304 303 303 302 302 302 302 302 302 303 304 308 311 314 314 315 315 314 314 314 316 319 322 324 326 327 327 327 327 325 323 322 322 321 321 319
316 316 320 320 319 318 317 319 322 321 319 321 321 321 320 319 318 318 316 315 315 315 313 312 313 312 311 311 308 305 304 303 303 301 301 300 299 301 303 304 303 304 308 308 307 306 305 304 303 303 303 302 302 302 302 301 300 301 301 303 305 307 309 310 312 313 314 315 315 315 316 317 319 321 323 325 326 325 323 324 322 322 321 321 319
315 314 314 316 317 318 320 321 321 320 320 320 320 319 319 319 319 318 317 316 316 313 313 312 311 311 311 312 311 311 309 308 308 307 304 303 303 303 303 306 306 307 309 308 308 307 305 303 303 303 302 302 302 302 302 302 301 300 299 301 304 308 310 311 312 311 311 312 313 314 315 315 316 316 318 321 323 324 325 322 323 322 321 321 321
308 309 309 310 312 315 317 317 317 318 317 317 317 318 317 317 317 317 317 316 316 314 313 313 313 312 312 312 312 311 311 311 310 308 308 307 306 303 305 306 304 305 308 307 307 308 308 308 307 306 304 302 302 301 301 301 301 300 298 299 302 304 306 308 310 311 311 310 311 312 313 314 315 316 318 319 320 322 323 324 323 322 323 321 319
308 309 308 309 310 310 311 313 314 314 314 315 315 315 317 316 315 315 315 316 315 315 314 313 313 313 312 311 310 310 310 311 310 309 307 306 304 303 303 304 305 304 306 305 307 304 306 306 307 307 306 304 302 301 300 300 300 298 297 298 300 302 304 305 307 307 309 309 310 311 311 311 313 313 314 318 319 319 321 322 322 323 322 323 322
308 309 309 308 308 308 306 307 308 310 312 313 312 312 314 315 315 315 315 315 315 314 314 314 313 313 312 311 310 310 310 310 309 309 309 307 306 305 303 300 301 303 301 304 304 304 305 307 304 304 304 304 301 300 300 299 299 298 296 298 298 298 300 304 307 308 308 308 308 308 309 309 310 312 312 313 316 317 319 320 321 322 321 321 320
307 307 306 306 306 306 306 306 306 307 307 310 311 311 311 311 310 310 310 311 310 309 310 312 312 311 311 311 310 309 310 309 309 309 308 308 307 307 306 303 300 298 301 300 301 302 305 304 304 304 303 302 301 300 298 299 299 298 296 297 297 297 298 302 305 307 307 307 308 308 308 308 308 309 309 310 310 311 313 315 316 316 315 314 313
306 304 304 302 304 303 304 305 305 305 305 306 307 308 310 308 307 307 308 309 309 308 308 309 310 310 310 310 310 310 308 309 309 309 309 309 309 308 307 305 304 300 298 297 300 300 302 304 302 299 302 301 301 300 299 299 298 298 298 297 296 296 297 301 303 306 307 308 308 308 308 308 308 308 307 308 309 309 310 311 311 312 312 313 314
302 303 301 301 301 300 301 302 302 302 302 303 303 303 303 302 304 305 306 307 306 306 306 306 307 308 308 308 309 308 309 308 308 307 306 307 306 305 306 306 304 302 301 298 299 302 302 303 304 303 297 300 300 300 299 299 297 297 297 297 296 296 297 299 301 303 304 306 306 306 307 307 307 306 306 306 307 308 310 310 311 311 312 313 314
301 301 300 298 297 297 298 297 299 299 299 299 299 299 299 301 301 302 303 304 303 303 304 304 305 303 304 305 305 305 306 306 307 307 307 307 307 307 307 306 305 304 303 301 297 301 304 301 302 303 301 295 298 299 299 298 298 298 298 297 297 296 295 296 296 299 301 303 304 304 305 306 306 306 306 306 307 308 309 310 310 310 311 312 313
298 297 295 295 295 295 296 296 296 296 297 297 298 297 298 297 298 299 300 299 301 301 301 303 303 303 303 303 303 304 304 304 304 305 305 306 306 306 305 305 304 304 302 301 298 298 303 303 303 303 303 303 300 298 298 298 298 294 297 297 297 294 294 294 295 297 299 301 302 303 304 305 305 305 305 305 306 307 308 308 309 309 310 311 311
294 294 294 293 293 293 293 293 293 293 294 295 295 296 295 295 296 295 297 298 299 300 300 300 300 301 301 301 301 302 302 302 302 303 303 303 303 303 303 303 303 303 302 301 297 298 301 304 302 302 302 302 301 299 297 296 295 295 294 295 295 293 293 293 293 293 295 297 298 299 300 301 302 303 303 303 303 304 305 307 308 309 308 309 309
292 292 292 293 292 293 292 291 292 291 291 293 291 292 292 292 293 296 295 295 295 296 297 298 298 298 298 298 299 299 300 300 300 300 300 300 300 300 299 299 300 300 299 298 297 297 297 301 300 301 301 302 299 299 296 298 296 293 293 292 292 291 291 292 291 290 293 295 296 297 298 299 300 301 301 301 302 304 306 307 307 306 305 306 306
291 291 291 293 292 290 290 290 291 290 291 290 290 290 290 289 290 292 293 292 294 294 295 295 295 296 296 296 296 297 298 297 297 297 297 297 298 297 297 297 297 298 297 298 297 296 296 297 300 299 300 300 299 300 297 296 296 295 293 292 292 292 291 290 289 289 292 294 295 297 297 298 298 299 299 300 300 301 302 304 305 304 303 304 303
292 291 290 290 289 289 289 288 288 289 289 288 288 289 290 289 288 290 289 289 292 293 293 294 294 294 294 294 294 294 294 294 294 294 294 295 295 295 295 295 295 296 296 296 296 296 296 295 297 298 298 298 299 299 296 294 293 293 293 293 292 291 290 289 288 288 290 293 294 295 296 296 297 297 298 298 299 299 301 303 304 302 301 301 300
290 289 289 288 288 289 292 289 290 288 289 289 289 288 288 288 288 289 290 289 290 291 292 292 291 292 293 293 293 293 292 292 292 292 293 293 293 293 294 294 294 295 295 295 295 295 295 294 295 298 298 298 298 298 297 295 293 291 289 289 290 290 289 288 287 288 289 292 292 293 293 294 295 296 297 297 298 299 300 302 302 300 299 298 297
287 288 287 287 287 288 287 288 288 288 288 288 288 289 289 288 288 289 289 289 289 290 290 291 290 291 291 291 291 291 291 291 291 291 291 291 292 292 292 293 294 294 294 294 294 294 294 294 294 294 296 295 295 296 296 293 294 293 292 289 287 286 286 286 286 286 287 287 287 288 290 292 293 294 295 296 297 297 298 301 300 299 297 295 295
286 286 286 286 287 286 287 287 288 288 289 288 288 289 289 288 288 288 288 288 289 289 289 289 290 290 290 290 290 290 290 290 290 290 290 290 291 291 292 292 293 293 293 293 293 293 293 293 293 294 294 295 295 293 295 292 292 293 292 292 290 287 285 286 286 287 286 286 288 289 288 289 289 290 292 294 295 296 297 300 300 297 294 293 294
285 284 285 286 285 285 286 286 287 287 287 287 287 287 287 287 288 287 287 287 287 288 288 288 288 289 289 289 289 290 290 290 290 290 289 289 290 290 291 292 292 292 292 292 292 292 292 292 292 292 293 293 294 294 288 286 287 287 287 288 288 290 288 285 285 286 286 285 284 285 287 288 289 290 291 292 292 294 296 298 297 294 292 292 292
286 284 285 284 285 285 285 285 286 287 289 290 289 288 289 288 287 287 287 287 287 287 287 287 288 288 288 289 289 289 289 289 290 290 291 291 291 290 290 290 290 291 291 291 291 291 291 291 291 292 292 292 292 292 292 291 289 290 292 287 287 288 288 287 286 285 285 284 284 284 284 285 285 286 287 287 289 291 293 295 294 291 292 292 292
283 283 284 284 284 285 285 285 285 287 288 289 289 291 291 289 287 287 287 286 286 286 286 286 287 287 288 288 289 288 288 288 289 290 291 291 291 291 291 290 289 290 289 289 289 290 290 289 290 290 289 290 291 292 291 292 293 291 289 288 286 288 287 286 286 284 284 284 283 283 284 285 285 285 286 286 288 290 291 291 290 290 291 293 293
283 283 284 283 283 284 283 284 284 286 287 288 289 292 292 293 289 286 285 285 285 285 285 286 286 286 287 287 288 288 288 288 288 289 290 291 291 291 291 291 291 290 289 288 288 289 289 289 289 289 289 289 290 292 292 292 292 292 291 289 288 287 286 285 285 285 283 283 283 282 283 285 285 284 286 286 287 287 287 288 291 291 291 293 293
283 283 283 283 283 283 284 282 283 284 285 287 290 291 291 292 291 288 286 285 285 285 285 285 285 285 286 286 287 288 288 288 288 289 289 290 291 291 291 291 291 291 291 290 288 288 288 288 288 288 289 289 290 291 291 291 291 291 290 289 288 287 286 285 285 285 285 284 282 282 282 285 285 285 285 286 286 286 286 289 291 292 292 293 292
282 282 282 282 283 282 282 282 282 283 283 287 289 290 291 291 291 289 286 285 285 285 284 284 285 285 285 285 286 286 287 287 287 287 288 288 289 290 290 290 290 291 292 293 292 290 290 289 288 288 289 289 289 290 291 291 291 290 290 288 287 287 287 286 287 287 284 284 282 282 281 283 284 284 284 284 285 285 286 290 292 292 292 292 291
281 281 281 281 281 282 282 282 282 282 282 286 289 290 290 290 291 290 286 285 285 284 284 284 285 284 284 284 285 285 286 286 286 286 286 287 288 288 288 288 288 288 290 291 291 290 290 290 289 288 290 291 289 290 291 291 290 289 289 289 288 287 286 286 287 287 285 284 282 282 280 281 283 283 281 282 284 284 286 289 291 292 291 291 290
281 282 282 282 282 282 282 282 282 282 283 287 289 289 289 290 290 290 286 285 284 284 284 284 284 284 284 285 284 284 285 285 286 286 286 286 286 287 287 287 287 287 288 288 288 289 289 290 290 290 291 291 291 291 291 292 291 291 290 289 289 289 288 287 286 284 282 284 283 283 278 281 283 282 281 280 282 283 285 289 291 290 290 290 290
280 280 281 279 281 281 281 282 282 282 282 287 288 288 289 289 290 286 284 283 283 283 283 284 284 284 284 284 284 284 284 284 286 288 288 287 286 286 286 286 286 287 287 288 290 290 290 290 290 290 291 291 292 291 291 291 290 290 290 289 288 287 286 285 283 283 279 283 284 283 280 279 282 281 279 280 281 281 284 285 289 290 290 289 289
280 280 280 280 281 281 281 281 280 281 281 284 286 287 288 289 288 284 284 283 283 283 283 284 284 284 284 284 284 284 284 284 286 289 289 289 286 285 285 285 286 286 286 287 290 291 291 291 292 292 293 293 293 294 294 294 292 291 290 287 286 287 284 282 283 282 279 282 283 283 282 278 281 279 277 279 279 280 281 283 285 288 289 289 289
279 279 280 280 280 279 280 280 280 280 281 283 286 287 288 288 288 284 283 283 282 283 283 283 284 283 284 284 284 284 284 284 287 288 289 288 286 285 285 284 284 284 285 287 287 288 290 290 291 291 291 292 292 293 293 294 293 292 289 286 287 287 283 284 282 283 281 281 281 284 280 278 279 278 276 277 278 278 280 282 283 285 287 288 288
277 278 280 279 279 279 277 279 281 281 280 282 285 286 287 288 286 284 283 282 282 282 282 282 283 283 283 283 284 285 285 286 289 289 289 288 286 285 284 284 283 284 285 286 286 287 287 287 287 288 288 289 289 289 289 291 291 290 290 288 288 286 284 284 284 281 277 278 281 284 279 278 276 277 276 274 271 274 276 279 281 282 283 283 284
Wind_Speed
5 4 3 3 4 3 4 3 4 4 5 4 3 3 3 3 3 2 1 2 3 3 3 3 2 3 4 3 3 3 3 5 2 1 1 5 5 8 10 7 6 4 6 7 7 8 7 7 7 8 5 7 8 6 5 6 6 6 6 6 6 6 6 5 5 6 5 6 7 6 6 6 7 7 7 6 5 6 4 5 7 6 5 6 6
5 5 5 4 3 4 4 4 5 4 5 4 3 4 4 3 3 3 4 4 3 4 4 4 3 3 3 2 3 3 4 3 4 3 2 2 5 6 12 10 8 7 6 8 11 11 12 10 8 9 10 8 9 8 7 8 8 7 7 7 8 7 8 8 7 8 8 8 8 9 9 8 8 8 7 8 8 8 9 7 6 6 4 4 6
4 4 4 4 4 5 4 4 4 4 4 4 3 4 5 5 5 4 4 3 3 4 4 3 4 4 3 3 3 3 4 4 3 4 4 3 2 6 7 12 10 8 7 8 11 11 11 11 12 12 11 10 12 12 9 10 10 10 9 9 9 9 9 9 9 9 10 10 10 10 10 11 10 10 10 10 9 9 8 8 7 8 9 5 4
2 4 4 4 4 5 4 4 5 4 4 5 4 5 4 4 4 4 3 3 4 4 4 4 4 4 4 4 4 3 4 4 3 3 3 3 3 3 6 7 10 10 9 9 11 12 12 13 13 12 12 12 10 12 11 12 12 11 11 11 11 11 11 10 11 11 12 12 12 12 12 12 12 12 11 11 10 11 10 10 10 10 9 10 11
4 3 3 3 4 4 5 4 5 5 4 4 4 4 3 2 2 1 1 1 2 3 2 4 4 4 4 4 5 4 4 4 4 4 4 4 6 2 3 5 5 10 12 10 11 12 14 15 16 14 14 14 15 15 14 14 14 14 14 14 13 13 13 13 13 14 13 14 13 13 13 13 13 13 13 13 12 11 12 13 12 11 11 9 9
4 3 3 3 3 4 4 4 4 4 4 5 5 4 3 3 3 3 4 3 4 4 3 4 4 4 4 4 4 5 4 5 4 5 4 4 4 4 4 4 6 6 7 11 12 12 13 15 15 14 14 16 16 16 16 15 14 15 16 15 15 15 15 15 15 15 15 15 15 14 15 15 15 15 15 15 15 14 14 14 14 13 13 12 12
3 2 4 5 4 3 4 4 4 4 4 4 5 4 4 5 5 5 4 5 5 5 5 5 4 6 6 5 5 4 4 5 5 4 4 4 4 4 6 7 4 6 6 6 9 13 14 14 16 17 17 17 17 17 18 19 17 16 17 18 17 17 17 17 17 18 17 17 17 17 17 16 15 16 17 17 17 15 16 16 15 15 14 13 13
4 3 2 2 3 3 4 4 4 5 5 4 4 5 6 5 5 5 5 5 5 6 4 5 4 5 4 5 5 5 5 5 5 4 4 5 5 4 5 6 5 7 5 6 7 9 15 15 16 16 17 19 19 18 19 19 18 17 19 20 18 18 19 18 19 18 18 19 17 19 18 18 18 19 19 18 17 17 16 16 16 16 16 15 15
6 6 4 3 3 4 4 3 4 4 4 4 5 6 4 5 5 5 5 5 5 5 4 5 5 5 4 4 4 4 5 5 4 4 4 5 5 5 5 5 6 6 6 6 6 6 11 16 16 16 16 17 20 21 21 20 19 20 20 21 21 20 20 20 20 20 20 19 20 20 19 21 21 20 19 19 19 19 18 17 17 17 17 17 17
8 6 6 6 5 5 5 5 4 4 5 5 6 5 4 4 5 4 5 4 5 4 5 4 4 4 4 4 4 3 3 4 4 4 4 5 5 6 7 6 6 6 7 7 6 7 5 9 16 17 17 17 17 21 21 21 21 21 23 23 23 22 22 21 21 22 21 21 21 20 21 20 20 20 20 20 21 21 20 18 18 18 18 17 18
6 6 6 6 6 6 6 5 5 6 6 5 5 4 4 4 5 4 4 5 5 4 5 5 4 3 2 3 3 3 3 3 3 3 5 6 7 7 5 7 6 6 7 7 7 6 7 6 6 7 11 18 17 18 20 23 22 23 24 23 23 24 23 22 23 22 21 23 23 23 22 23 22 22 22 22 22 22 21 21 21 21 19 19 19
7 6 6 6 6 6 6 5 4 5 6 6 5 5 5 4 5 5 4 5 5 4 1 1 1 1 2 5 4 4 5 5 5 6 6 7 8 7 7 7 6 7 7 7 7 7 7 8 7 7 7 11 17 19 20 20 21 23 25 25 25 25 24 22 22 25 24 24 24 24 24 24 24 24 24 24 24 23 23 22 22 21 22 21 22
7 6 6 7 7 6 5 4 4 4 5 6 5 5 5 6 5 4 5 4 4 3 2 3 1 3 3 6 8 6 9 8 9 9 9 9 8 8 8 7 7 7 8 7 6 6 7 8 8 7 8 7 9 15 19 20 20 22 26 26 27 27 26 26 25 23 24 25 25 24 25 26 26 27 25 26 26 24 25 24 24 23 23 22 22
7 7 7 6 6 7 6 6 5 5 4 3 2 3 3 3 3 4 2 5 4 3 2 3 2 5 4 5 4 5 9 8 9 10 10 9 9 9 8 9 9 9 7 7 7 7 8 8 8 9 9 9 9 9 11 13 16 21 23 27 28 29 29 28 26 24 23 26 27 27 28 28 26 27 28 28 28 26 27 26 26 25 24 24 24
6 7 6 5 4 4 4 4 4 5 4 4 3 4 4 5 5 6 4 2 2 1 5 7 6 2 2 2 6 4 2 2 6 9 8 9 8 9 10 9 10 9 8 7 7 8 8 8 9 9 10 10 9 10 10 11 13 17 20 23 24 29 31 30 29 28 27 25 25 27 28 28 28 29 28 29 28 28 26 27 26 26 25 26 27
6 6 6 6 6 6 5 5 6 7 7 6 5 7 6 6 5 6 5 4 3 6 5 5 5 3 4 5 2 1 9 5 4 5 8 11 9 10 7 8 9 8 6 9 9 8 8 7 9 10 10 10 9 9 9 9 14 16 17 18 21 23 27 31 32 31 30 28 27 24 28 30 30 30 29 28 29 29 28 28 28 28 27 27 27
6 7 8 8 7 7 7 7 8 8 7 8 8 9 8 7 8 7 7 8 7 5 4 6 7 7 6 1 3 1 6 6 4 6 5 4 6 8 8 8 8 9 8 9 7 7 8 8 9 9 9 10 10 10 9 10 10 11 14 16 18 20 23 26 30 33 33 31 30 29 27 29 32 31 31 31 31 30 29 29 30 30 31 30 30
5 6 6 5 6 7 7 7 5 6 5 5 5 4 5 7 8 8 7 7 8 6 5 4 8 9 9 8 7 7 5 2 5 7 2 3 5 6 8 8 7 8 7 7 7 8 8 9 9 10 9 9 10 9 9 10 10 10 10 13 19 20 22 26 27 31 33 34 32 31 32 25 28 32 31 32 33 32 32 31 30 31 31 30 30
3 3 3 5 6 6 6 6 6 5 5 5 6 6 7 7 6 6 8 7 5 7 8 6 3 7 8 10 10 9 7 5 7 5 11 1 3 2 5 5 7 8 8 8 8 8 8 9 10 10 10 9 9 9 9 10 13 14 15 18 21 21 21 24 25 27 31 33 33 33 33 34 27 30 28 31 32 33 33 32 33 32 32 32 32
3 3 3 3 4 5 5 5 5 5 5 6 7 7 5 4 6 8 8 7 8 8 8 6 6 5 6 9 8 8 6 7 7 8 9 12 12 7 8 9 6 8 8 9 9 9 10 10 10 10 10 10 9 9 10 10 10 11 12 19 23 24 23 22 24 25 26 27 31 33 35 35 36 33 32 27 31 33 33 34 34 33 33 33 33
1 0 0 1 1 3 4 4 4 4 5 5 4 4 7 9 7 6 7 7 6 7 6 7 7 9 3 6 6 7 6 7 7 5 7 10 15 10 12 4 7 9 8 8 9 9 10 11 11 12 11 10 9 9 9 9 9 10 12 18 21 24 25 25 24 24 24 24 25 28 31 35 37 36 34 34 31 31 32 33 35 35 33 34 33
3 3 2 1 1 0 0 1 2 2 2 3 5 6 6 7 8 7 8 9 7 7 8 8 7 7 5 4 4 3 4 5 5 6 6 8 13 14 11 12 13 9 7 7 8 10 10 11 12 11 10 9 9 9 9 10 9 9 12 18 20 22 24 24 24 24 24 24 25 25 28 30 33 36 37 37 37 34 33 28 33 32 33 34 34
3 2 2 3 3 3 3 1 1 1 3 3 4 3 3 4 4 4 5 6 6 8 9 8 7 7 7 5 6 7 7 8 6 5 7 7 7 12 12 10 10 14 9 9 10 11 11 11 11 10 10 9 9 9 9 10 12 13 17 17 19 21 21 23 24 24 23 23 23 25 24 26 29 32 35 36 37 37 36 33 28 31 34 32 34
2 2 3 3 3 3 3 4 5 4 4 3 3 3 3 3 3 3 4 5 5 4 5 6 7 7 8 7 8 7 7 8 7 6 6 9 8 12 12 11 12 11 10 7 8 9 8 11 10 11 10 9 9 9 9 10 11 17 15 17 21 23 23 24 24 23 24 24 24 25 28 28 29 30 33 35 35 37 39 35 35 32 30 33 32
3 3 4 4 2 2 3 2 2 1 2 3 3 3 3 3 3 3 4 4 4 5 6 8 8 9 9 8 8 7 9 8 7 7 7 7 7 11 14 8 13 16 10 7 9 5 8 12 10 11 8 9 8 8 9 9 9 12 16 13 19 19 21 22 23 24 23 23 24 25 26 28 28 31 31 34 35 36 36 38 37 35 37 34 29
1 0 2 1 1 2 2 1 1 2 3 3 4 4 4 4 4 4 4 4 3 5 6 6 6 7 6 6 6 7 8 6 7 6 7 7 8 9 12 12 10 14 13 9 9 9 8 8 9 9 9 9 8 8 8 9 9 13 15 12 14 18 20 19 20 22 23 24 25 26 26 26 28 28 29 30 33 35 36 37 35 36 37 36 30
6 4 5 5 5 5 4 2 2 1 1 2 2 3 3 4 4 4 4 4 4 5 5 6 7 7 6 7 7 7 7 7 6 8 6 7 8 8 7 13 15 13 12 12 10 12 14 9 7 8 9 9 8 8 8 7 11 14 14 11 10 15 17 18 20 22 22 24 25 25 25 25 25 27 30 28 29 31 33 35 34 36 35 34 32
4 5 5 5 5 5 6 6 5 5 3 2 2 2 2 4 5 5 5 3 4 4 5 5 6 6 6 6 6 7 6 7 6 7 7 7 7 7 7 9 11 17 17 15 13 11 5 9 6 9 8 9 8 8 9 11 8 13 14 9 8 9 15 16 20 21 22 23 24 24 23 25 26 28 29 29 29 29 30 31 32 34 27 18 15
4 4 4 4 4 4 4 4 4 4 4 4 4 3 2 2 2 4 5 5 6 6 6 6 6 7 7 8 8 7 5 5 5 6 7 8 8 8 8 9 9 11 14 16 22 11 6 7 7 2 6 5 7 6 7 7 10 12 8 8 8 8 12 15 19 20 23 24 23 22 23 23 24 26 26 27 28 29 29 29 28 28 24 20 21
3 4 4 4 4 4 4 4 4 4 4 4 4 4 4 4 3 3 3 5 5 6 5 5 7 6 7 7 7 9 8 8 7 6 5 7 6 5 6 6 5 10 10 13 21 15 9 6 6 9 2 5 5 6 6 8 10 12 8 8 8 9 13 17 18 20 19 20 20 21 23 23 24 24 24 24 26 27 28 29 31 30 32 30 28
5 4 4 4 4 4 4 4 5 5 4 4 4 4 4 4 3 3 3 4 5 6 6 6 6 4 5 7 7 8 7 8 7 7 7 7 8 7 7 8 9 10 12 12 16 23 3 10 4 6 6 4 4 6 6 6 8 11 9 8 9 12 16 14 16 15 18 18 20 20 22 23 24 24 25 25 26 26 27 29 30 32 32 32 32
4 4 4 4 5 4 4 4 4 4 5 5 6 5 5 4 4 4 4 3 4 6 7 6 6 6 8 9 8 8 7 7 8 8 8 7 7 8 8 8 8 7 8 9 13 22 18 8 12 8 9 11 6 7 9 7 8 12 8 8 10 13 10 9 14 15 15 18 20 20 20 21 23 24 25 26 27 26 26 28 32 31 31 32 30
4 4 5 4 4 4 4 4 4 4 4 5 5 5 5 5 6 4 4 5 5 5 6 7 5 6 6 8 9 9 7 8 8 8 8 9 7 7 6 6 8 8 9 13 16 20 21 12 8 11 6 7 12 7 10 8 8 8 9 9 8 7 8 8 8 11 13 15 18 19 20 21 22 23 23 24 25 26 25 25 27 29 24 23 21
4 4 4 3 4 5 5 4 4 4 4 4 4 4 4 4 5 4 4 5 5 6 5 8 7 6 6 8 9 9 6 8 8 9 9 9 8 8 8 7 10 9 7 9 12 15 21 20 11 7 10 8 14 6 9 11 9 7 9 8 7 7 8 9 8 7 10 13 16 18 20 21 22 23 22 22 23 23 24 25 24 20 17 18 24
4 4 4 5 5 4 4 4 4 3 3 3 3 3 3 4 4 4 4 4 5 6 7 7 8 7 8 7 9 9 7 8 8 9 9 9 9 10 11 8 11 11 10 11 11 15 19 21 18 12 11 9 11 12 8 8 9 7 8 8 8 8 8 8 8 7 9 15 17 19 20 21 22 22 21 22 22 23 22 23 21 16 17 19 22
6 5 5 5 4 4 4 4 4 4 4 4 4 3 3 3 4 5 4 4 4 5 6 7 8 7 8 9 9 9 8 9 10 9 9 8 9 9 10 9 10 12 10 10 12 13 15 19 20 15 10 11 12 9 7 7 8 8 8 9 7 8 9 7 8 8 8 15 18 19 20 20 20 20 21 22 22 23 22 22 19 16 17 18 22
5 5 5 4 4 4 5 4 4 4 4 5 5 4 4 4 4 5 5 5 5 6 6 7 8 8 8 9 10 9 8 10 11 9 9 10 9 9 10 9 10 10 10 9 11 12 14 17 19 17 13 11 12 12 8 9 8 8 7 9 9 10 7 5 5 7 8 15 17 19 18 19 20 21 21 22 22 22 22 21 18 18 16 20 22
4 4 4 4 4 4 4 4 4 4 4 4 5 5 5 5 4 5 5 5 6 6 7 7 8 7 8 9 9 9 9 10 12 10 9 11 10 10 10 10 10 10 11 11 10 12 14 16 16 19 17 14 12 12 9 6 11 11 10 9 8 8 5 7 8 7 7 7 8 9 12 15 18 21 21 21 23 23 23 20 19 20 20 20 20
4 4 4 4 4 4 4 4 4 4 5 4 4 5 5 4 4 5 6 6 7 7 7 8 8 8 8 9 10 9 10 10 11 12 11 10 10 11 11 11 12 11 11 11 10 12 13 14 15 16 16 15 13 14 10 7 9 10 11 12 11 6 7 9 10 7 7 9 9 12 13 12 13 12 16 21 22 22 22 21 19 19 18 19 19
4 4 4 4 4 3 4 4 4 4 4 4 5 4 4 4 5 6 5 7 8 8 8 8 8 9 10 10 10 10 11 11 11 12 10 11 10 11 10 10 11 12 12 11 11 11 12 13 14 15 13 15 14 11 5 2 7 7 8 9 13 13 8 8 11 9 6 6 8 8 10 11 13 16 19 20 22 22 21 18 18 18 20 21 18
4 3 3 3 4 4 4 4 4 4 5 5 4 5 6 7 5 6 7 7 8 9 10 10 9 9 10 10 10 11 12 16 18 17 16 14 11 12 13 9 10 12 12 11 11 11 11 12 14 12 13 15 14 13 11 11 12 14 10 8 12 12 9 8 8 8 7 7 7 7 8 9 8 9 8 8 11 15 16 18 15 20 21 20 17
3 3 4 4 4 4 5 5 5 5 5 4 6 11 10 7 7 7 7 7 8 9 10 11 11 10 11 11 12 17 18 19 19 20 21 21 21 17 16 13 12 11 12 12 12 11 11 12 13 14 14 16 16 14 13 15 12 9 10 9 11 11 8 9 9 6 7 8 8 10 9 7 8 8 7 9 9 10 8 10 10 13 18 20 19
4 4 4 4 4 4 4 5 5 6 6 7 12 12 13 14 9 8 7 8 7 8 9 10 13 14 12 11 11 13 15 15 16 20 20 22 22 23 25 24 20 15 13 14 14 12 11 12 13 14 14 17 18 15 15 14 11 12 11 10 10 9 10 11 14 3 7 10 9 8 9 6 7 9 8 8 8 5 5 7 15 19 20 20 23
4 3 4 4 4 4 4 4 4 5 6 9 13 14 15 15 14 10 9 9 9 9 9 11 12 13 14 14 12 10 10 12 13 13 16 20 22 23 24 24 24 24 22 17 16 14 13 13 13 15 15 17 17 15 14 12 13 11 10 10 10 11 11 12 11 12 4 11 8 8 9 5 7 8 8 8 6 6 7 12 19 21 22 24 24
3 4 5 5 5 5 4 5 5 6 6 10 13 14 15 16 17 14 9 9 10 11 12 12 13 14 13 13 14 13 11 15 14 12 12 14 18 22 23 24 24 24 23 25 25 20 14 15 16 18 17 18 17 17 14 12 9 13 10 10 10 11 12 13 12 11 5 10 7 7 9 6 7 8 7 5 6 7 9 16 22 23 24 23 22
4 5 5 5 5 5 5 5 6 5 6 9 13 14 15 17 18 16 10 11 11 12 13 13 13 14 14 14 14 16 16 14 11 11 11 14 14 14 14 14 13 16 20 24 24 25 22 18 17 19 20 17 17 16 15 11 11 12 11 12 9 11 12 14 13 12 2 10 11 7 5 6 6 6 6 4 5 7 8 16 25 25 23 23 21
4 5 6 6 5 5 6 6 6 7 6 11 14 16 16 17 19 17 11 10 11 12 13 13 14 15 15 14 14 16 18 17 15 14 13 14 15 16 16 16 15 14 14 14 12 11 14 16 18 19 20 19 19 19 16 14 14 14 13 14 13 12 11 8 6 3 5 9 8 7 10 5 6 7 5 6 5 6 6 16 23 23 22 21 21
3 3 4 4 5 7 6 7 7 9 8 10 14 15 17 17 19 12 10 11 12 13 14 14 14 13 13 13 13 16 17 18 20 22 19 16 15 18 20 18 17 15 15 15 16 15 16 16 16 16 17 18 20 19 17 15 14 13 11 10 9 10 10 9 12 5 8 8 10 10 5 5 7 8 5 4 6 7 6 7 18 21 21 22 22
5 5 5 5 5 6 8 7 7 9 9 8 11 15 16 18 14 10 11 11 11 12 14 15 15 14 13 12 13 14 16 17 21 24 24 21 16 18 18 19 18 18 18 14 14 18 22 24 26 28 28 28 27 27 28 29 21 15 11 10 12 11 9 11 12 8 10 7 8 10 6 5 7 6 6 5 6 7 6 6 7 17 22 22 23
6 6 6 6 5 5 7 8 6 8 11 11 12 13 16 18 15 11 11 11 12 13 14 14 14 13 14 20 18 15 15 17 21 25 25 20 15 15 16 17 20 20 19 15 11 11 17 21 24 26 27 27 29 29 29 28 27 20 13 12 13 10 10 12 13 11 5 7 10 9 7 6 7 8 8 4 5 1 4 5 7 9 18 19 23
5 5 5 6 6 5 5 7 10 9 10 12 14 13 17 18 15 10 10 10 12 13 14 16 15 14 15 15 20 19 17 18 25 25 27 22 15 14 15 16 19 20 18 16 15 16 13 13 13 13 15 18 18 16 17 23 24 22 16 15 12 11 11 11 12 5 4 7 9 11 9 6 10 8 11 7 3 2 3 2 6 6 5 6 11
Wind_Direction
161 177 191 195 177 174 165 164 157 192 162 229 146 153 176 206 200 191 163 216 212 204 237 256 229 231 223 232 201 229 279 285 304 303 184 157 174 185 184 195 209 206 258 234 217 219 228 229 223 232 247 223 252 243 236 239 243 236 237 236 240 237 229 230 228 232 225 218 213 207 221 215 210 204 201 193 187 187 200 201 180 184 183 175 174
168 175 174 206 176 174 165 176 177 192 166 199 186 159 188 210 202 189 200 215 213 210 199 224 230 251 234 214 201 213 237 257 276 283 266 213 178 194 193 196 206 205 208 217 219 213 213 225 236 222 244 242 249 237 236 247 245 243 243 245 238 243 239 235 230 231 226 227 221 217 216 214 214 215 208 202 208 208 186 204 207 194 205 220 189
171 179 180 184 180 164 188 187 179 194 171 190 191 178 193 192 194 200 206 209 219 223 189 214 229 222 233 222 236 222 247 251 245 256 260 261 208 180 204 203 202 211 215 226 230 238 239 232 221 226 244 247 226 232 234 239 247 245 246 244 243 239 241 238 237 236 234 231 228 225 220 218 216 216 216 219 202 219 222 212 207 207 209 215 252
237 177 184 175 182 174 185 192 196 193 174 187 190 188 192 205 190 191 205 201 215 220 197 196 245 228 211 215 224 243 255 258 260 265 265 277 268 185 190 209 207 209 222 223 229 230 232 239 238 238 239 244 238 243 241 239 241 248 247 244 242 240 234 233 238 236 236 235 232 230 228 225 222 222 224 227 225 210 216 218 214 218 221 211 210
262 206 180 179 186 185 188 197 192 188 179 181 183 175 202 210 217 151 261 303 287 274 225 196 231 256 224 218 197 220 237 250 249 250 255 256 268 230 197 210 213 220 219 223 229 233 233 237 245 255 242 232 236 250 250 240 242 244 246 246 244 241 237 229 225 235 235 235 235 234 232 231 229 227 225 223 224 224 219 223 218 220 225 224 228
213 230 173 209 221 197 188 197 190 186 176 175 174 169 191 203 210 162 216 232 243 245 240 237 236 246 256 226 195 212 217 231 241 237 237 239 243 262 243 196 210 221 224 228 229 232 239 240 246 246 246 245 259 260 251 249 245 242 246 246 242 240 241 230 222 220 226 230 232 233 232 231 231 231 230 228 225 225 224 224 223 223 223 222 224
261 236 208 193 216 220 199 197 189 194 179 184 175 183 186 205 195 192 206 217 225 230 224 227 221 223 232 223 210 216 219 225 233 238 238 242 230 230 239 252 220 202 215 225 230 232 234 239 239 241 242 246 253 258 252 251 250 244 243 246 242 240 240 238 235 232 232 225 228 227 228 230 230 230 232 232 233 227 229 229 229 229 228 229 228
275 281 303 239 202 224 214 200 199 191 186 185 175 191 204 208 207 191 204 220 212 233 229 232 230 233 232 218 212 202 212 225 233 233 235 235 236 234 237 238 239 238 230 210 216 227 230 232 236 239 242 245 250 251 252 255 259 253 253 254 250 237 239 237 238 237 227 233 229 226 232 228 227 232 232 232 235 234 232 232 232 232 232 229 228
225 256 260 257 249 245 252 227 207 190 184 190 193 203 203 207 218 208 191 212 209 224 229 224 230 232 239 228 221 200 207 213 222 228 237 231 231 231 235 236 240 239 239 240 229 216 226 229 232 235 238 242 245 248 252 255 255 254 253 253 251 243 234 236 238 233 238 235 224 232 227 231 233 232 231 233 232 235 234 233 234 234 233 234 233
208 206 214 228 226 225 237 241 226 198 186 192 207 205 214 202 219 220 203 211 227 216 226 231 227 229 237 230 228 212 231 234 236 250 241 246 239 234 229 229 231 234 235 233 235 236 230 225 231 233 234 235 238 241 247 253 256 255 256 254 253 253 250 242 231 232 236 233 235 229 227 232 230 232 233 232 230 229 230 231 233 234 234 234 236
209 205 207 210 218 220 216 219 211 206 199 195 203 205 214 219 204 225 214 206 214 224 221 212 234 247 248 270 272 251 262 250 251 252 247 240 241 242 236 235 232 233 233 232 234 234 236 238 225 230 237 237 237 239 243 246 250 254 256 256 255 253 253 251 249 244 234 234 233 228 226 231 235 232 231 232 236 234 234 230 231 234 234 234 234
204 206 209 210 213 218 220 215 218 206 197 191 199 199 210 224 232 210 218 227 217 221 135 100 53 17 290 286 277 278 268 258 258 247 245 244 243 240 240 240 235 236 231 230 229 228 231 236 237 232 228 235 236 239 242 244 248 249 251 256 257 257 255 250 246 244 243 242 237 234 233 229 228 231 233 232 235 235 235 231 229 233 235 234 235
196 204 216 216 214 213 212 219 222 211 203 206 192 197 206 210 215 207 222 232 240 180 96 105 75 314 271 262 272 248 247 243 244 244 240 242 241 243 242 241 240 238 236 233 230 227 230 234 238 237 238 236 239 237 239 242 243 245 247 249 255 260 260 257 252 250 244 240 237 237 234 232 232 234 231 230 232 231 234 236 232 232 233 234 235
196 206 217 220 213 204 200 212 204 218 233 238 216 213 227 220 187 217 222 219 228 177 161 106 254 230 272 290 275 259 240 231 239 242 239 240 237 238 239 238 241 238 237 231 231 225 229 231 232 235 237 239 240 241 240 241 243 244 245 246 247 251 257 260 260 250 243 241 242 243 236 237 238 236 232 231 230 232 232 233 235 233 230 231 235
190 200 212 221 218 212 219 214 215 203 214 235 239 241 225 216 195 202 224 244 243 205 181 184 233 159 182 328 280 314 282 267 253 251 238 239 234 235 234 234 240 237 235 231 230 228 227 226 230 231 235 235 237 239 241 241 241 238 240 244 246 249 254 258 259 261 256 249 247 248 242 238 237 234 232 234 233 231 230 229 233 232 230 232 234
198 195 205 215 213 211 209 215 217 203 200 208 218 236 231 226 217 223 201 227 208 242 202 198 204 120 291 211 270 62 305 271 265 260 223 233 225 235 231 234 237 243 232 233 235 232 233 226 231 232 234 234 234 238 240 241 246 248 248 247 247 247 249 253 259 262 263 261 257 249 244 240 237 238 240 239 233 233 233 231 232 234 233 231 232
195 197 203 215 215 215 218 218 209 206 200 204 207 210 208 215 215 217 210 218 238 236 231 195 207 206 215 288 308 286 229 272 327 273 221 236 243 234 237 231 233 236 230 238 239 238 238 236 236 237 237 234 235 236 236 240 244 246 248 249 250 251 250 251 253 258 262 263 260 257 247 241 242 242 242 240 235 236 234 231 232 232 232 232 232
191 194 201 209 213 215 215 214 209 202 196 203 208 211 214 212 213 213 220 219 230 237 246 201 211 210 221 232 232 259 285 262 4 298 360 201 242 229 233 230 230 238 233 241 236 240 235 241 240 242 238 235 234 234 233 236 238 239 239 244 243 245 249 251 252 254 257 261 263 260 259 250 248 248 247 242 240 238 236 235 231 230 231 230 228
251 236 201 188 200 211 218 225 227 218 205 203 211 218 225 219 195 199 215 216 214 241 241 229 213 235 222 229 244 253 259 286 264 313 300 269 245 297 263 241 234 235 236 235 235 237 239 238 243 244 242 239 235 234 236 238 236 237 236 241 245 246 244 246 246 251 254 257 261 263 263 263 257 256 248 245 245 241 239 238 235 232 232 230 230
238 243 248 240 222 220 216 219 221 223 209 213 217 216 217 225 209 208 210 206 204 218 235 223 199 237 209 233 238 250 258 260 258 259 275 294 284 265 258 268 247 246 232 235 233 232 240 240 243 240 240 239 234 233 234 236 238 239 242 241 243 244 244 245 244 245 247 251 255 259 263 265 266 262 258 249 247 247 243 239 237 234 232 230 232
130 127 68 45 154 209 226 235 231 229 216 227 230 226 226 232 230 218 215 220 213 220 223 231 224 243 184 234 231 237 240 237 250 235 251 273 279 277 282 244 251 256 253 234 237 234 237 243 241 240 238 239 233 232 233 235 237 237 239 241 242 244 245 245 245 245 246 247 249 253 257 263 266 267 267 264 256 250 250 248 243 242 238 236 234
9 21 22 22 10 46 223 247 265 276 273 251 236 229 231 230 228 216 207 212 212 214 222 233 236 245 222 197 192 242 253 264 241 231 245 234 263 282 278 287 284 263 237 247 235 243 243 246 245 243 240 239 234 232 227 233 235 238 239 239 241 244 246 247 246 245 245 246 248 249 253 257 261 265 268 269 268 264 262 248 245 240 240 240 237
340 356 19 8 351 351 339 307 305 306 303 314 311 291 270 258 247 231 225 223 223 224 229 236 238 242 246 231 222 205 215 235 230 207 220 246 267 268 273 263 258 284 258 235 246 240 236 243 244 243 240 237 235 231 230 231 234 238 238 238 242 245 243 245 246 247 247 248 247 248 248 251 255 259 263 267 268 269 266 264 255 245 240 238 242
276 356 329 339 355 344 343 331 317 311 305 288 270 268 281 290 284 269 260 251 253 251 248 245 239 242 243 239 239 233 238 242 249 231 223 247 247 272 280 294 287 260 280 266 237 244 228 241 243 244 237 236 231 230 229 234 238 237 238 240 244 247 245 244 245 245 246 247 250 251 253 252 252 254 256 259 264 267 269 265 260 256 250 245 238
242 235 248 239 219 248 284 319 335 335 351 355 340 335 339 341 321 300 280 265 250 237 239 240 236 236 240 237 241 245 246 250 251 247 252 259 260 275 276 278 279 292 282 277 276 252 239 251 240 245 241 233 234 227 226 231 236 236 234 241 240 246 246 247 250 250 249 248 247 250 252 254 254 254 254 257 258 263 265 268 266 263 259 254 245
21 324 317 290 274 234 199 214 261 350 358 349 339 332 330 320 313 305 301 296 292 272 261 262 260 259 264 263 251 249 255 258 257 254 256 257 259 261 283 286 274 279 291 278 275 286 260 230 238 240 238 238 234 227 227 229 234 241 235 236 241 244 249 250 250 252 253 253 254 253 254 254 255 256 257 257 259 259 263 265 267 265 262 259 258
25 12 25 19 13 9 7 351 311 248 240 287 318 334 325 305 280 270 271 265 269 277 278 276 273 268 258 251 259 254 257 257 253 258 254 251 256 264 276 291 296 286 278 284 275 246 273 264 220 241 233 238 232 232 228 229 234 235 237 237 242 244 247 249 251 251 250 252 252 251 252 253 254 257 259 260 261 262 263 265 265 265 267 264 256
19 29 13 19 8 6 3 359 357 353 336 293 259 243 305 330 336 335 326 326 313 298 291 298 294 296 288 280 269 262 252 251 247 254 254 254 257 263 259 267 282 295 299 293 282 271 224 263 254 218 224 222 233 224 228 232 236 239 239 237 238 243 243 245 248 247 249 250 250 250 249 251 256 259 260 261 261 262 263 263 265 269 276 279 274
27 31 21 3 3 8 351 344 345 347 352 355 353 340 339 1 344 340 334 336 333 321 321 313 300 295 292 293 289 289 284 276 266 255 254 251 249 249 243 249 255 271 286 295 291 286 285 187 279 261 216 225 231 223 233 231 236 236 238 232 236 240 240 238 241 245 246 247 250 251 252 251 253 257 261 263 264 264 264 262 259 262 262 254 252
32 21 25 12 12 11 12 354 346 351 351 356 357 355 2 4 356 343 332 335 322 313 302 294 292 294 291 287 278 275 274 270 264 264 266 267 267 263 264 258 249 254 268 283 288 286 286 265 215 279 200 243 230 245 226 240 239 237 242 236 235 238 240 239 240 245 249 254 255 255 254 255 258 258 260 260 262 264 265 263 263 260 260 257 249
34 23 15 17 14 10 15 3 357 351 355 352 356 353 359 355 354 348 346 351 332 321 320 318 305 305 296 292 291 287 294 293 292 285 280 275 271 268 257 251 241 238 258 265 278 283 203 277 245 232 264 225 245 249 248 243 245 237 238 236 236 238 238 243 245 247 249 250 253 254 257 258 260 259 260 261 261 261 262 263 262 261 259 256 254
29 23 24 23 16 21 9 11 359 358 359 352 359 360 360 355 342 331 313 323 311 304 303 303 305 307 304 296 292 289 294 291 284 281 280 274 271 268 263 261 258 254 261 263 263 277 280 253 279 258 267 277 251 256 258 244 241 237 241 239 240 241 241 244 243 240 241 247 252 254 255 257 257 258 259 261 261 261 262 264 264 260 255 253 246
33 25 27 19 18 19 16 4 2 356 359 354 359 3 360 349 347 342 338 337 318 306 304 302 299 296 292 290 289 289 295 291 286 284 278 276 273 268 270 268 264 252 244 252 258 270 280 267 253 278 268 281 281 238 253 249 245 244 241 242 246 247 245 246 247 243 244 247 249 251 253 254 255 256 258 259 261 262 263 265 260 255 242 222 197
42 37 25 18 20 19 10 357 356 356 357 359 351 12 354 347 335 339 336 331 322 314 315 303 307 303 299 295 292 292 292 287 285 281 280 282 276 277 266 260 263 259 243 251 262 270 279 290 271 261 275 265 276 244 235 258 253 240 247 246 245 243 248 248 248 246 232 239 244 247 248 251 251 252 253 255 259 262 263 261 254 233 216 204 182
25 39 25 27 16 8 1 347 349 342 337 332 335 354 336 327 315 315 316 319 311 306 305 300 301 303 296 288 287 291 292 289 282 279 282 278 275 269 267 258 258 259 249 243 257 266 273 278 283 282 273 268 259 274 249 241 250 238 243 243 237 239 238 242 244 244 230 236 244 246 248 248 250 252 253 255 258 260 260 262 254 211 199 192 180
30 13 25 15 14 4 360 351 347 340 336 328 326 318 295 290 293 290 291 286 278 277 280 285 288 288 285 288 282 285 286 282 277 274 269 266 264 263 263 257 256 259 254 248 243 257 269 279 282 280 274 280 273 265 253 246 247 239 234 245 237 238 239 231 234 241 237 241 245 248 249 251 251 252 252 254 256 256 260 254 234 192 187 184 180
17 23 9 10 12 6 358 344 337 332 322 320 320 313 302 283 274 280 283 280 274 271 269 271 273 274 278 273 277 280 278 278 276 269 270 267 262 262 261 261 257 258 259 249 250 249 259 267 277 281 280 269 274 276 264 264 262 252 250 246 245 246 245 238 241 240 243 246 247 248 250 251 252 252 252 253 253 255 258 246 193 178 183 183 178
20 15 16 357 10 352 345 325 324 318 321 323 317 308 305 302 290 282 280 279 277 274 275 272 271 268 268 270 271 269 270 267 272 272 268 266 267 261 260 262 259 259 260 257 249 251 254 262 269 282 283 280 276 270 264 228 264 271 263 252 248 245 237 252 237 236 233 236 242 247 250 251 250 251 251 252 252 253 254 238 191 176 176 178 170
37 19 2 9 345 351 322 327 322 318 318 321 320 313 309 309 308 306 302 296 288 284 275 272 270 268 264 267 268 262 259 260 264 267 269 268 264 262 260 261 264 260 260 259 253 253 254 262 267 266 277 278 272 278 272 231 242 252 263 272 265 227 215 234 249 237 220 237 241 240 240 240 247 246 248 249 250 250 250 232 194 177 159 180 172
22 13 359 349 325 338 322 327 318 320 320 317 313 305 303 307 312 304 298 298 296 290 285 280 275 271 267 265 263 261 256 257 256 262 258 265 265 267 259 254 260 261 260 262 260 255 257 260 262 271 269 277 278 267 272 286 265 260 235 242 260 266 238 222 232 238 227 207 235 239 240 243 241 242 245 247 249 248 246 222 189 168 167 182 169
2 342 340 341 340 340 333 330 324 321 320 313 305 310 316 312 306 301 298 292 289 290 289 284 277 274 272 265 262 259 255 254 253 253 255 252 261 270 267 252 253 259 264 262 261 259 259 260 266 265 270 271 271 277 270 257 248 256 256 211 245 254 263 262 243 217 214 217 235 231 232 218 232 238 229 242 241 239 241 212 176 168 178 183 176
348 339 351 345 350 341 338 332 332 328 320 310 306 305 304 297 299 290 287 283 282 283 287 289 286 273 267 270 268 262 260 260 259 258 257 256 250 247 259 263 255 254 258 264 262 259 260 262 264 269 269 269 270 266 265 260 263 259 254 238 244 252 255 253 264 223 190 208 225 235 234 209 217 235 225 232 237 226 220 185 170 170 183 182 178
349 340 346 348 343 334 331 329 327 325 319 315 310 308 306 304 301 296 289 286 277 275 275 279 285 288 282 271 269 271 269 265 263 261 259 257 255 253 251 250 249 247 258 261 262 260 258 258 266 266 264 268 268 267 263 268 263 257 253 246 243 247 242 251 262 257 184 194 218 235 241 200 194 221 220 219 213 203 174 166 172 177 183 183 173
343 347 353 335 329 327 325 324 316 305 302 297 301 304 305 305 305 302 298 294 291 285 281 281 283 286 287 288 284 279 271 267 269 268 265 261 258 255 254 254 253 248 240 242 256 263 258 260 261 260 265 263 268 267 267 266 266 264 252 245 240 237 242 243 248 254 206 178 195 220 238 193 189 212 215 211 186 178 166 170 178 181 183 178 170
335 356 339 336 330 326 321 314 304 296 290 291 295 298 301 301 302 302 295 291 292 290 290 287 285 286 288 291 294 288 279 272 269 269 270 271 268 265 261 260 259 256 252 245 240 243 256 257 259 263 257 264 266 265 261 263 265 268 259 248 239 238 238 243 245 250 206 178 173 213 229 204 173 202 206 189 168 164 162 171 176 176 177 170 164
354 341 335 328 319 318 312 302 296 290 286 290 296 300 302 303 303 303 295 295 291 289 288 288 287 288 288 291 294 294 294 289 278 273 275 275 277 276 271 265 261 258 255 250 246 242 241 246 252 256 260 259 262 267 269 268 267 264 265 260 250 248 242 242 240 245 185 163 185 189 224 200 181 182 183 166 146 159 162 171 175 173 170 166 164
334 329 323 322 313 306 305 299 294 292 287 295 302 304 304 304 304 304 299 296 293 291 289 286 285 285 288 289 288 288 291 292 289 285 282 281 283 283 279 276 271 266 261 257 247 240 241 243 248 253 260 263 265 268 271 268 261 260 258 262 261 259 257 258 270 228 158 193 180 184 219 180 173 184 179 153 152 147 153 169 170 171 168 167 165
300 301 297 289 300 305 300 303 308 304 303 306 304 305 307 307 308 306 303 300 297 295 293 292 288 288 288 287 288 287 287 289 290 291 287 285 284 284 284 283 282 276 268 259 253 244 244 247 248 253 256 259 261 263 264 265 264 263 262 261 263 261 257 245 244 203 206 203 188 193 197 182 184 178 149 135 143 140 160 159 173 170 168 168 168
325 319 309 305 304 306 307 307 306 301 301 303 305 307 309 312 314 310 307 304 299 297 296 296 295 295 294 290 288 288 290 290 294 295 294 292 286 283 283 285 285 285 282 279 265 254 251 251 254 256 257 259 260 261 263 263 263 262 261 255 253 249 238 245 247 226 224 189 203 197 180 174 178 146 129 143 147 146 155 161 167 174 171 170 167
320 313 310 312 307 302 302 301 299 301 303 307 313 315 315 316 318 314 310 308 304 304 301 298 300 299 297 296 293 290 291 294 297 297 298 298 291 286 286 288 290 289 287 289 284 267 257 256 256 258 258 259 259 261 262 262 262 262 259 252 256 255 234 233 245 240 223 188 202 176 176 183 132 138 127 107 81 43 145 147 151 171 172 168 167
296 301 309 309 306 300 286 295 306 309 306 311 320 323 319 318 321 317 314 311 310 309 309 306 305 303 303 300 296 295 295 296 300 303 304 305 298 297 295 292 288 286 287 293 290 286 281 275 265 261 260 258 260 258 258 258 258 259 255 255 256 249 240 237 241 231 211 226 194 172 175 172 147 165 139 127 91 3 358 123 140 140 136 135 144